Home   Weather   Santa Ana   Past weeks

Flag for El Salvador Past Weather in Santa Ana, El Salvador — Yesterday and Last 2 Weeks

Now
82 °F

Scattered clouds.


Feels Like: 86 °F
Forecast: N/A
Wind: 5 mph from Southeast

Location: San Salvador / Ilopango

Current Time: Apr 25, 2017 at 2:52:15 pm

Latest Report: Apr 25, 2017 at 1:50 pm


Visibility: 4 mi

Pressure: 29.95 "Hg (27.82 "Hg at 650m altitude)

Humidity: 66%

Dew Point: 70 °F

Location of Santa AnaLocation

Past Weather in Santa Ana — Graph

°F

Santa Ana Temperature Yesterday

Maximum temperature yesterday: 90 °F (at 11:50 am)
Minimum temperature yesterday: 72 °F (at 5:50 am)
Average temperature yesterday: 80 °F

High & Low Weather Summary for the Past Weeks

 TemperatureHumidityPressure
High93 °F (Apr 11, 2:50 pm)100% (Apr 24, 2:50 pm)30.04 "Hg (Apr 24, 2:50 pm)
Low66 °F (Apr 22, 5:50 am)24% (Apr 13, 12:50 pm)29.86 "Hg (Apr 12, 3:50 pm)
Average80 °F63%29.96 "Hg
* Reported Apr 10 12:50 pm — Apr 25 12:50 pm, Santa Ana, Weather by CustomWeather, © 2017

Note: Actual official high and low records may vary slightly from our data, if they occured in-between our weather recording intervals... More about our weather records

Advertising

Santa Ana Weather History for the Previous 24 Hours

Scroll right to see more
 ConditionsComfort  
Time TempWeatherWind HumidityBarometerVisibility
12:50 pm
Tue, Apr 25
84 °FPartly sunny.6 mph66%29.95 "Hg4 mi
11:50 am86 °FHeavy rain. Partly sunny.12 mph59%29.98 "Hg4 mi
10:50 am86 °FPartly sunny.8 mph52%29.98 "Hg4 mi
9:50 am73 °FPassing clouds.7 mph89%30.01 "Hg4 mi
8:50 am79 °FHaze.3 mph70%30.01 "Hg3 mi
7:50 am75 °FFog.2 mph83%29.98 "Hg2 mi
6:50 am72 °FFog.No wind94%29.98 "Hg2 mi
5:50 am72 °FFog.2 mph94%29.95 "Hg1 mi
11:50 pm
Mon, Apr 24
75 °FPassing clouds.7 mph83%29.98 "HgN/A
10:50 pm77 °FPassing clouds.5 mph79%29.98 "HgN/A
9:50 pm77 °FPassing clouds.3 mph79%29.95 "HgN/A
8:50 pm77 °FPassing clouds.No wind79%29.95 "HgN/A
7:50 pm77 °FPassing clouds.3 mph79%29.92 "Hg5 mi
6:50 pm77 °FHaze.3 mph83%29.92 "Hg3 mi
5:50 pm81 °FHaze.8 mph74%29.92 "Hg5 mi
4:50 pm81 °FPassing clouds.8 mph74%29.92 "Hg4 mi
3:50 pm84 °FScattered clouds.9 mph66%29.92 "Hg4 mi
2:50 pm86 °FPassing clouds.8 mph100%29.92 "Hg5 mi
Weather by CustomWeather, © 2017

See weather overviewHow to use our weather pages